When you browse on this site, cookies collect data to enhance your experience and personalize the content and advertising you see.
Visit our Privacy Policy to learn more. By continuing to use the site, you agree to this use of cookies and data.
  • In United Kingdom
  • List of Countries
  • For 7 days
  • Water Temperature
  • Satellite Maps
  • Weather Map
  • Weather Widgets
  • user-avatar
    Login

    Hourly Weather Majkop

    Today, 18 July, Thursday

    Time Temperature Precipitation Wind Pressure Humidity
    00:00 +20°C° 0 mm 1 mps 726 mmHg 81%
    01:00 +20°C° 0 mm 1 mps 726 mmHg 83%
    02:00 +19°C° 0 mm 1 mps 726 mmHg 84%
    03:00 +17°C° 0 mm 0 mps 726 mmHg 88%
    04:00 +17°C° 0 mm 0 mps 726 mmHg 88%
    05:00 +18°C° 0 mm 0 mps 726 mmHg 87%
    06:00 +18°C° 0 mm 0 mps 726 mmHg 87%
    07:00 +20°C° 0 mm 0 mps 726 mmHg 79%
    08:00 +24°C° 0 mm 1 mps 726 mmHg 71%
    09:00 +27°C° 0 mm 1 mps 726 mmHg 63%
    10:00 +27°C° 0.3 mm 1 mps 727 mmHg 64%
    11:00 +27°C° 0.3 mm 2 mps 727 mmHg 65%
    12:00 +28°C° 0.3 mm 2 mps 727 mmHg 66%
    13:00 +28°C° 0.4 mm 2 mps 727 mmHg 67%
    14:00 +27°C° 0.4 mm 2 mps 727 mmHg 69%
    15:00 +27°C° 0.4 mm 2 mps 727 mmHg 70%
    16:00 +26°C° 1.4 mm 2 mps 728 mmHg 76%
    17:00 +25°C° 1.4 mm 1 mps 728 mmHg 83%
    18:00 +24°C° 1.4 mm 1 mps 728 mmHg 89%
    19:00 +23°C° 0.6 mm 1 mps 728 mmHg 92%
    20:00 +22°C° 0.6 mm 1 mps 729 mmHg 94%
    21:00 +21°C° 0.6 mm 1 mps 729 mmHg 97%
    22:00 +21°C° 0 mm 1 mps 729 mmHg 97%
    23:00 +18°C° 0 mm 0 mps 729 mmHg 97%

    Tomorrow, 19 July, Friday

    Time Temperature Precipitation Wind Pressure Humidity
    00:00 +18°C° 0 mm 0 mps 730 mmHg 98%
    01:00 +18°C° 0.1 mm 0 mps 730 mmHg 98%
    02:00 +18°C° 0.1 mm 0 mps 730 mmHg 98%
    03:00 +18°C° 0.1 mm 0 mps 730 mmHg 98%
    04:00 +18°C° 0.2 mm 0 mps 730 mmHg 98%
    05:00 +18°C° 0.2 mm 0 mps 731 mmHg 98%
    06:00 +18°C° 0.2 mm 0 mps 731 mmHg 98%
    07:00 +19°C° 0.2 mm 0 mps 731 mmHg 98%
    08:00 +19°C° 0.2 mm 0 mps 731 mmHg 98%
    09:00 +19°C° 0.2 mm 0 mps 732 mmHg 98%
    10:00 +19°C° 0.5 mm 0 mps 732 mmHg 96%
    11:00 +22°C° 0.5 mm 1 mps 732 mmHg 95%
    12:00 +22°C° 0.5 mm 1 mps 732 mmHg 94%
    13:00 +23°C° 1.1 mm 1 mps 732 mmHg 92%
    14:00 +23°C° 1.1 mm 1 mps 732 mmHg 90%
    15:00 +24°C° 1.1 mm 1 mps 732 mmHg 88%
    16:00 +24°C° 1.3 mm 1 mps 732 mmHg 88%
    17:00 +24°C° 1.3 mm 1 mps 732 mmHg 89%
    18:00 +23°C° 1.3 mm 1 mps 732 mmHg 89%
    19:00 +22°C° 0.3 mm 1 mps 733 mmHg 91%
    20:00 +22°C° 0.3 mm 1 mps 733 mmHg 92%
    21:00 +21°C° 0.3 mm 1 mps 733 mmHg 94%
    22:00 +20°C° 0 mm 1 mps 733 mmHg 94%
    23:00 +20°C° 0 mm 1 mps 734 mmHg 94%

    Day after tomorrow, 20 July, Saturday

    Time Temperature Precipitation Wind Pressure Humidity
    00:00 +20°C° 0 mm 1 mps 734 mmHg 94%
    01:00 +18°C° 0 mm 0 mps 734 mmHg 94%
    02:00 +18°C° 0 mm 0 mps 734 mmHg 94%
    03:00 +17°C° 0 mm 0 mps 734 mmHg 94%
    04:00 +18°C° 0 mm 0 mps 734 mmHg 94%
    05:00 +18°C° 0 mm 0 mps 734 mmHg 94%
    06:00 +18°C° 0 mm 0 mps 734 mmHg 94%
    07:00 +22°C° 0 mm 1 mps 734 mmHg 86%
    08:00 +24°C° 0 mm 1 mps 735 mmHg 78%
    09:00 +25°C° 0 mm 2 mps 735 mmHg 71%
    10:00 +26°C° 0 mm 2 mps 735 mmHg 65%
    11:00 +28°C° 0 mm 3 mps 735 mmHg 60%
    12:00 +29°C° 0 mm 4 mps 735 mmHg 54%
    13:00 +29°C° 0 mm 4 mps 735 mmHg 55%
    14:00 +29°C° 0 mm 4 mps 735 mmHg 55%
    15:00 +29°C° 0 mm 4 mps 734 mmHg 56%
    16:00 +29°C° 0 mm 4 mps 734 mmHg 60%
    17:00 +28°C° 0 mm 3 mps 734 mmHg 65%
    18:00 +27°C° 0 mm 3 mps 734 mmHg 70%
    19:00 +26°C° 0 mm 3 mps 734 mmHg 75%
    20:00 +25°C° 0 mm 2 mps 734 mmHg 81%
    21:00 +23°C° 0 mm 2 mps 734 mmHg 86%
    22:00 +23°C° 0 mm 2 mps 734 mmHg 87%
    23:00 +23°C° 0 mm 2 mps 734 mmHg 89%

    21 July, Sunday

    Time Temperature Precipitation Wind Pressure Humidity
    00:00 +21°C° 0 mm 2 mps 734 mmHg 90%
    01:00 +21°C° 0 mm 2 mps 734 mmHg 91%
    02:00 +21°C° 0 mm 1 mps 733 mmHg 91%
    03:00 +21°C° 0 mm 1 mps 733 mmHg 92%
    04:00 +21°C° 0 mm 1 mps 733 mmHg 91%
    05:00 +21°C° 0 mm 1 mps 733 mmHg 91%
    06:00 +21°C° 0 mm 1 mps 733 mmHg 90%
    07:00 +23°C° 0 mm 2 mps 733 mmHg 83%
    08:00 +25°C° 0 mm 2 mps 733 mmHg 77%
    09:00 +27°C° 0 mm 2 mps 733 mmHg 70%
    10:00 +28°C° 0 mm 2 mps 733 mmHg 67%
    11:00 +29°C° 0 mm 2 mps 733 mmHg 64%
    12:00 +30°C° 0 mm 2 mps 733 mmHg 61%
    13:00 +29°C° 0.5 mm 2 mps 733 mmHg 69%
    14:00 +28°C° 0.5 mm 2 mps 733 mmHg 78%
    15:00 +27°C° 0.5 mm 1 mps 733 mmHg 86%
    16:00 +27°C° 0.6 mm 1 mps 733 mmHg 86%
    17:00 +27°C° 0.6 mm 2 mps 733 mmHg 87%
    18:00 +27°C° 0.6 mm 2 mps 733 mmHg 88%
    19:00 +25°C° 0.4 mm 2 mps 733 mmHg 90%
    20:00 +24°C° 0.4 mm 2 mps 733 mmHg 91%
    21:00 +23°C° 0.4 mm 2 mps 733 mmHg 93%
    22:00 +22°C° 0.3 mm 1 mps 733 mmHg 93%
    23:00 +21°C° 0.3 mm 1 mps 732 mmHg 93%

    22 July, Monday

    Time Temperature Precipitation Wind Pressure Humidity
    00:00 +21°C° 0.3 mm 1 mps 732 mmHg 94%
    01:00 +20°C° 0.2 mm 1 mps 732 mmHg 94%
    02:00 +20°C° 0.2 mm 1 mps 732 mmHg 94%
    03:00 +18°C° 0.2 mm 0 mps 732 mmHg 94%
    04:00 +18°C° 0.2 mm 0 mps 732 mmHg 94%
    05:00 +18°C° 0.2 mm 0 mps 732 mmHg 94%
    06:00 +18°C° 0.2 mm 0 mps 732 mmHg 94%
    07:00 +21°C° 1 mm 1 mps 732 mmHg 93%
    08:00 +22°C° 1 mm 1 mps 732 mmHg 92%
    09:00 +22°C° 1 mm 1 mps 732 mmHg 91%
    10:00 +23°C° 1.4 mm 2 mps 732 mmHg 90%
    11:00 +23°C° 1.4 mm 2 mps 732 mmHg 89%
    12:00 +24°C° 1.4 mm 2 mps 732 mmHg 88%
    13:00 +24°C° 1.1 mm 2 mps 732 mmHg 90%
    14:00 +24°C° 1.1 mm 2 mps 732 mmHg 91%
    15:00 +23°C° 1.1 mm 2 mps 732 mmHg 92%
    16:00 +23°C° 0.9 mm 2 mps 732 mmHg 93%
    17:00 +23°C° 0.9 mm 2 mps 732 mmHg 93%
    18:00 +23°C° 0.9 mm 2 mps 732 mmHg 94%
    19:00 +21°C° 0.8 mm 2 mps 732 mmHg 95%
    20:00 +22°C° 0.8 mm 1 mps 732 mmHg 96%
    21:00 +21°C° 0.8 mm 1 mps 732 mmHg 97%
    22:00 +21°C° 0.6 mm 1 mps 731 mmHg 96%
    23:00 +21°C° 0.6 mm 1 mps 731 mmHg 96%

    23 July, Tuesday

    Time Temperature Precipitation Wind Pressure Humidity
    00:00 +21°C° 0.6 mm 1 mps 731 mmHg 96%
    01:00 +20°C° 0 mm 1 mps 731 mmHg 95%
    02:00 +20°C° 0 mm 1 mps 731 mmHg 95%
    03:00 +20°C° 0 mm 1 mps 730 mmHg 95%
    04:00 +20°C° 0 mm 1 mps 730 mmHg 95%
    05:00 +20°C° 0 mm 1 mps 730 mmHg 95%
    06:00 +20°C° 0 mm 1 mps 730 mmHg 95%
    07:00 +22°C° 0 mm 1 mps 730 mmHg 87%
    08:00 +24°C° 0 mm 1 mps 730 mmHg 78%
    09:00 +26°C° 0 mm 2 mps 730 mmHg 70%
    10:00 +27°C° 0.1 mm 2 mps 730 mmHg 65%
    11:00 +28°C° 0.1 mm 2 mps 730 mmHg 61%
    12:00 +29°C° 0.1 mm 2 mps 730 mmHg 56%
    13:00 +29°C° 0.6 mm 2 mps 730 mmHg 62%
    14:00 +28°C° 0.6 mm 2 mps 730 mmHg 68%
    15:00 +28°C° 0.6 mm 1 mps 729 mmHg 73%
    16:00 +27°C° 1 mm 1 mps 729 mmHg 78%
    17:00 +27°C° 1 mm 1 mps 729 mmHg 83%
    18:00 +24°C° 1 mm 0 mps 729 mmHg 87%
    19:00 +25°C° 0.3 mm 1 mps 729 mmHg 89%
    20:00 +23°C° 0.3 mm 1 mps 729 mmHg 90%
    21:00 +22°C° 0.3 mm 1 mps 729 mmHg 92%
    22:00 +21°C° 0 mm 1 mps 729 mmHg 92%
    23:00 +21°C° 0 mm 1 mps 729 mmHg 93%
    Show more